Вернуться в каталог

DELTA 1 DEB

АктивенSSO
NORAD 12372·DEBRIS·🇺🇸 United States

Запущен Mar 5, 1978 с Vandenberg Space Force Base

Loading…

Ближайшие Пролёты (ближайшие 24 часа)

TLE

СвежийSource: Space-Track

Эпоха: Sep 14, 2026, 02:00 UTC

1 12372U 78026EP  26257.08392090  .00001259  00000-0  30223-3 0  9991
2 12372  98.4401 296.8608 0033640 296.1620  91.8701 14.54866448716543

Отслеживайте DELTA 1 DEB в реальном времени с AllMySat

Download on the App Store